カタログに戻る

STARLINK-4718

運用中通信VLEO
NORAD 53773·PAYLOAD·🇺🇸 United States

打ち上げ Sep 11, 2022 から Cape Canaveral Space Force Station

Loading…

次のパス (今後24時間)

TLE

最新Source: CelesTrak SupGP

元期: Sep 15, 2026, 02:44 UTC

1 53773C 22111A   26258.11437500  .00050797  00000+0  16337-2 0  2583
2 53773  53.1593 143.5639 0001368  83.1059 112.8013 15.31672427    13

AllMySatでSTARLINK-4718をリアルタイム追跡

Download on the App Store